When you browse on this site, cookies collect data to enhance your experience and personalize the content and advertising you see.
Visit our Privacy Policy to learn more. By continuing to use the site, you agree to this use of cookies and data.
  • In Czech Republic
  • List of Countries
  • For 7 days
  • Water Temperature
  • Satellite Maps
  • Weather Map
  • Weather Widgets
  • user-avatar
    Login

    Hourly Weather Tema

    Today, 22 July, Monday

    Time Temperature Precipitation Wind Pressure Humidity
    00:00 +27°C° 0 mm 5 mps 759 mmHg 83%
    01:00 +27°C° 0 mm 5 mps 759 mmHg 83%
    02:00 +27°C° 0 mm 5 mps 758 mmHg 84%
    03:00 +27°C° 0 mm 5 mps 758 mmHg 85%
    04:00 +26°C° 0.1 mm 5 mps 758 mmHg 85%
    05:00 +26°C° 0.1 mm 5 mps 758 mmHg 86%
    06:00 +26°C° 0.1 mm 5 mps 758 mmHg 87%
    07:00 +27°C° 0.2 mm 5 mps 759 mmHg 83%
    08:00 +28°C° 0.2 mm 5 mps 759 mmHg 78%
    09:00 +29°C° 0.2 mm 5 mps 759 mmHg 74%
    10:00 +30°C° 0 mm 5 mps 759 mmHg 71%
    11:00 +30°C° 0 mm 5 mps 759 mmHg 67%
    12:00 +32°C° 0 mm 6 mps 759 mmHg 63%
    13:00 +32°C° 0 mm 6 mps 758 mmHg 64%
    14:00 +32°C° 0 mm 6 mps 757 mmHg 65%
    15:00 +32°C° 0 mm 6 mps 756 mmHg 66%
    16:00 +30°C° 0 mm 6 mps 757 mmHg 69%
    17:00 +29°C° 0 mm 7 mps 757 mmHg 73%
    18:00 +28°C° 0 mm 7 mps 757 mmHg 76%
    19:00 +28°C° 0 mm 6 mps 758 mmHg 77%
    20:00 +28°C° 0 mm 6 mps 758 mmHg 77%
    21:00 +28°C° 0 mm 6 mps 759 mmHg 78%
    22:00 +27°C° 0 mm 6 mps 759 mmHg 79%
    23:00 +27°C° 0 mm 6 mps 759 mmHg 80%

    Tomorrow, 23 July, Tuesday

    Time Temperature Precipitation Wind Pressure Humidity
    00:00 +27°C° 0 mm 6 mps 759 mmHg 81%
    01:00 +27°C° 0.2 mm 6 mps 758 mmHg 81%
    02:00 +27°C° 0.2 mm 7 mps 758 mmHg 81%
    03:00 +27°C° 0.2 mm 7 mps 758 mmHg 81%
    04:00 +27°C° 0.3 mm 7 mps 758 mmHg 81%
    05:00 +27°C° 0.3 mm 7 mps 758 mmHg 81%
    06:00 +27°C° 0.3 mm 7 mps 759 mmHg 81%
    07:00 +27°C° 0.3 mm 6 mps 759 mmHg 77%
    08:00 +28°C° 0.3 mm 6 mps 759 mmHg 73%
    09:00 +29°C° 0.3 mm 6 mps 760 mmHg 69%
    10:00 +29°C° 0.3 mm 6 mps 759 mmHg 68%
    11:00 +29°C° 0.3 mm 6 mps 759 mmHg 68%
    12:00 +29°C° 0.3 mm 6 mps 759 mmHg 67%
    13:00 +29°C° 0 mm 6 mps 758 mmHg 66%
    14:00 +30°C° 0 mm 6 mps 758 mmHg 65%
    15:00 +30°C° 0 mm 6 mps 757 mmHg 64%
    16:00 +29°C° 0 mm 6 mps 757 mmHg 66%
    17:00 +29°C° 0 mm 5 mps 758 mmHg 68%
    18:00 +28°C° 0 mm 5 mps 758 mmHg 70%
    19:00 +28°C° 0 mm 5 mps 758 mmHg 72%
    20:00 +27°C° 0 mm 5 mps 759 mmHg 74%
    21:00 +27°C° 0 mm 5 mps 759 mmHg 76%
    22:00 +27°C° 0.1 mm 5 mps 759 mmHg 78%
    23:00 +27°C° 0.1 mm 5 mps 759 mmHg 79%

    Day after tomorrow, 24 July, Wednesday

    Time Temperature Precipitation Wind Pressure Humidity
    00:00 +26°C° 0.1 mm 5 mps 759 mmHg 81%
    01:00 +26°C° 0 mm 4 mps 758 mmHg 81%
    02:00 +26°C° 0 mm 4 mps 758 mmHg 80%
    03:00 +26°C° 0 mm 3 mps 758 mmHg 80%
    04:00 +26°C° 0 mm 3 mps 758 mmHg 80%
    05:00 +26°C° 0 mm 3 mps 758 mmHg 81%
    06:00 +26°C° 0 mm 3 mps 759 mmHg 81%
    07:00 +27°C° 0.1 mm 3 mps 759 mmHg 75%
    08:00 +28°C° 0.1 mm 3 mps 759 mmHg 69%
    09:00 +29°C° 0.1 mm 3 mps 760 mmHg 63%
    10:00 +30°C° 0 mm 3 mps 759 mmHg 61%
    11:00 +31°C° 0 mm 3 mps 759 mmHg 58%
    12:00 +32°C° 0 mm 4 mps 759 mmHg 56%
    13:00 +32°C° 0 mm 4 mps 758 mmHg 57%
    14:00 +32°C° 0 mm 4 mps 758 mmHg 58%
    15:00 +32°C° 0 mm 5 mps 757 mmHg 59%
    16:00 +30°C° 0 mm 5 mps 757 mmHg 63%
    17:00 +29°C° 0 mm 4 mps 757 mmHg 68%
    18:00 +28°C° 0 mm 4 mps 758 mmHg 72%
    19:00 +28°C° 0 mm 4 mps 758 mmHg 73%
    20:00 +27°C° 0 mm 4 mps 759 mmHg 74%
    21:00 +27°C° 0 mm 3 mps 759 mmHg 75%
    22:00 +27°C° 0 mm 4 mps 759 mmHg 76%
    23:00 +27°C° 0 mm 5 mps 758 mmHg 77%

    25 July, Thursday

    Time Temperature Precipitation Wind Pressure Humidity
    00:00 +27°C° 0 mm 5 mps 758 mmHg 78%
    01:00 +26°C° 0 mm 6 mps 758 mmHg 79%
    02:00 +26°C° 0 mm 6 mps 758 mmHg 80%
    03:00 +26°C° 0 mm 6 mps 758 mmHg 81%
    04:00 +26°C° 0.1 mm 5 mps 758 mmHg 81%
    05:00 +26°C° 0.1 mm 4 mps 759 mmHg 81%
    06:00 +26°C° 0.1 mm 4 mps 759 mmHg 81%
    07:00 +27°C° 0 mm 4 mps 760 mmHg 77%
    08:00 +28°C° 0 mm 4 mps 760 mmHg 73%
    09:00 +29°C° 0 mm 4 mps 760 mmHg 69%
    10:00 +29°C° 0 mm 4 mps 760 mmHg 67%
    11:00 +30°C° 0 mm 4 mps 759 mmHg 64%
    12:00 +32°C° 0 mm 5 mps 759 mmHg 62%
    13:00 +32°C° 0 mm 5 mps 758 mmHg 62%
    14:00 +32°C° 0 mm 6 mps 758 mmHg 63%
    15:00 +32°C° 0 mm 6 mps 757 mmHg 64%
    16:00 +30°C° 0 mm 6 mps 757 mmHg 67%
    17:00 +29°C° 0 mm 6 mps 757 mmHg 71%
    18:00 +28°C° 0 mm 6 mps 757 mmHg 75%
    19:00 +27°C° 0 mm 6 mps 758 mmHg 76%
    20:00 +27°C° 0 mm 6 mps 758 mmHg 77%
    21:00 +27°C° 0 mm 6 mps 759 mmHg 78%
    22:00 +27°C° 0 mm 6 mps 759 mmHg 78%
    23:00 +27°C° 0 mm 6 mps 759 mmHg 79%

    26 July, Friday

    Time Temperature Precipitation Wind Pressure Humidity
    00:00 +26°C° 0 mm 6 mps 759 mmHg 79%
    01:00 +26°C° 0 mm 6 mps 758 mmHg 79%
    02:00 +26°C° 0 mm 6 mps 758 mmHg 80%
    03:00 +26°C° 0 mm 6 mps 758 mmHg 80%
    04:00 +26°C° 0 mm 6 mps 758 mmHg 80%
    05:00 +26°C° 0 mm 5 mps 758 mmHg 80%
    06:00 +26°C° 0 mm 5 mps 759 mmHg 80%
    07:00 +27°C° 0 mm 5 mps 759 mmHg 79%
    08:00 +27°C° 0 mm 5 mps 760 mmHg 77%
    09:00 +28°C° 0 mm 4 mps 760 mmHg 75%
    10:00 +28°C° 0.1 mm 5 mps 760 mmHg 72%
    11:00 +29°C° 0.1 mm 5 mps 760 mmHg 69%
    12:00 +30°C° 0.1 mm 5 mps 759 mmHg 65%
    13:00 +30°C° 0 mm 5 mps 759 mmHg 65%
    14:00 +30°C° 0 mm 6 mps 758 mmHg 65%
    15:00 +30°C° 0 mm 6 mps 757 mmHg 65%
    16:00 +29°C° 0 mm 6 mps 757 mmHg 68%
    17:00 +29°C° 0 mm 6 mps 758 mmHg 70%
    18:00 +28°C° 0 mm 6 mps 758 mmHg 73%
    19:00 +28°C° 0 mm 6 mps 758 mmHg 75%
    20:00 +27°C° 0 mm 6 mps 759 mmHg 76%
    21:00 +27°C° 0 mm 6 mps 759 mmHg 78%
    22:00 +27°C° 0.1 mm 6 mps 759 mmHg 79%
    23:00 +26°C° 0.1 mm 6 mps 759 mmHg 81%

    27 July, Saturday

    Time Temperature Precipitation Wind Pressure Humidity
    00:00 +26°C° 0.1 mm 6 mps 759 mmHg 82%
    01:00 +26°C° 0.2 mm 6 mps 759 mmHg 83%
    02:00 +26°C° 0.2 mm 6 mps 758 mmHg 84%
    03:00 +26°C° 0.2 mm 6 mps 758 mmHg 84%
    04:00 +26°C° 0.2 mm 5 mps 759 mmHg 84%
    05:00 +26°C° 0.2 mm 5 mps 759 mmHg 85%
    06:00 +26°C° 0.2 mm 5 mps 759 mmHg 85%
    07:00 +27°C° 0.3 mm 5 mps 760 mmHg 79%
    08:00 +28°C° 0.3 mm 5 mps 760 mmHg 73%
    09:00 +29°C° 0.3 mm 4 mps 760 mmHg 67%
    10:00 +30°C° 0.2 mm 5 mps 760 mmHg 65%
    11:00 +30°C° 0.2 mm 5 mps 760 mmHg 64%
    12:00 +32°C° 0.2 mm 6 mps 759 mmHg 62%
    13:00 +32°C° 0 mm 6 mps 759 mmHg 62%
    14:00 +32°C° 0 mm 6 mps 758 mmHg 62%
    15:00 +32°C° 0 mm 6 mps 757 mmHg 62%
    16:00 +30°C° 0 mm 6 mps 757 mmHg 65%
    17:00 +29°C° 0 mm 6 mps 757 mmHg 69%
    18:00 +28°C° 0 mm 6 mps 758 mmHg 72%
    19:00 +28°C° 0 mm 6 mps 758 mmHg 74%
    20:00 +27°C° 0 mm 6 mps 759 mmHg 76%
    21:00 +27°C° 0 mm 5 mps 759 mmHg 77%
    22:00 +27°C° 0 mm 6 mps 759 mmHg 78%
    23:00 +27°C° 0 mm 6 mps 759 mmHg 79%
    Show more